WAT2476 KSFO-KRDD

Flight info

Callsign WAT2476
Flight time 0h 31m
Altitude 22000
Route TRUKN2 DEDHD RBL
Aircraft B737/M-SDE2E3FGHIRWXY/LB1

Departure

Time 2026-04-21 03:07
Airport San Francisco International Airport (KSFO)

Arrival

Time 2026-04-21 03:38
Airport Redding Municipal Airport (KRDD)
Time Latitude Longitude Altitude Speed Heading
2026-04-21 02:37 37.62830 -122.38268 21 ft 0 kts 298°
2026-04-21 02:54 37.62828 -122.38262 21 ft 4 kts 297°
2026-04-21 02:54 37.62817 -122.38231 21 ft 4 kts 285°
2026-04-21 02:54 37.62814 -122.38198 21 ft 4 kts 255°
2026-04-21 02:55 37.62824 -122.38179 21 ft 1 kts 207°
2026-04-21 02:55 37.62827 -122.38176 21 ft 0 kts 207°
2026-04-21 02:57 37.62796 -122.38197 22 ft 11 kts 207°
2026-04-21 02:57 37.62710 -122.38253 21 ft 12 kts 207°
2026-04-21 02:57 37.62678 -122.38275 21 ft 0 kts 207°
2026-04-21 02:58 37.62675 -122.38277 21 ft 3 kts 207°
2026-04-21 02:59 37.62622 -122.38307 22 ft 12 kts 186°
2026-04-21 02:59 37.62564 -122.38233 21 ft 14 kts 118°
2026-04-21 02:59 37.62508 -122.38098 21 ft 21 kts 117°
2026-04-21 02:59 37.62438 -122.37931 21 ft 22 kts 117°
2026-04-21 03:00 37.62365 -122.37757 21 ft 23 kts 118°
2026-04-21 03:00 37.62289 -122.37576 21 ft 24 kts 118°
2026-04-21 03:00 37.62207 -122.37379 23 ft 27 kts 117°
2026-04-21 03:00 37.62116 -122.37161 22 ft 28 kts 117°
2026-04-21 03:01 37.62027 -122.36949 22 ft 26 kts 118°
2026-04-21 03:01 37.61944 -122.36751 22 ft 25 kts 117°
2026-04-21 03:01 37.61866 -122.36567 24 ft 23 kts 118°
2026-04-21 03:01 37.61794 -122.36394 24 ft 23 kts 118°
2026-04-21 03:02 37.61716 -122.36209 23 ft 26 kts 118°
2026-04-21 03:02 37.61624 -122.35991 21 ft 30 kts 118°
2026-04-21 03:02 37.61545 -122.35802 23 ft 18 kts 118°
2026-04-21 03:02 37.61474 -122.35682 21 ft 17 kts 158°
2026-04-21 03:03 37.61376 -122.35719 21 ft 15 kts 208°
2026-04-21 03:03 37.61292 -122.35776 21 ft 11 kts 208°
2026-04-21 03:03 37.61274 -122.35788 21 ft 1 kts 208°
2026-04-21 03:03 37.61267 -122.35793 21 ft 1 kts 208°
2026-04-21 03:04 37.61266 -122.35794 21 ft 0 kts 208°
2026-04-21 03:05 37.61263 -122.35796 21 ft 4 kts 208°
2026-04-21 03:05 37.61207 -122.35840 21 ft 13 kts 229°
2026-04-21 03:05 37.61212 -122.35940 21 ft 10 kts 297°
2026-04-21 03:06 37.61214 -122.35944 21 ft 0 kts 298°
2026-04-21 03:06 37.61226 -122.35973 21 ft 15 kts 298°
2026-04-21 03:06 37.61377 -122.36332 21 ft 81 kts 298°
2026-04-21 03:06 37.61741 -122.37201 21 ft 140 kts 297°
2026-04-21 03:07 37.62230 -122.38391 326 ft 160 kts 298°
2026-04-21 03:07 37.62786 -122.39666 884 ft 169 kts 302°
2026-04-21 03:07 37.63727 -122.40517 1553 ft 174 kts 350°
2026-04-21 03:07 37.64912 -122.40232 2213 ft 185 kts 32°
2026-04-21 03:08 37.65757 -122.38864 2521 ft 217 kts 65°
2026-04-21 03:08 37.66380 -122.36997 2929 ft 240 kts 65°
2026-04-21 03:08 37.67034 -122.35042 3740 ft 244 kts 65°
2026-04-21 03:08 37.67712 -122.33051 4558 ft 249 kts 66°
2026-04-21 03:09 37.68417 -122.31006 5262 ft 260 kts 66°
2026-04-21 03:09 37.69157 -122.28867 5912 ft 272 kts 66°
2026-04-21 03:09 37.69928 -122.26660 6741 ft 276 kts 69°
2026-04-21 03:09 37.70708 -122.24444 7731 ft 275 kts 70°
2026-04-21 03:10 37.71753 -122.22417 8797 ft 281 kts 48°
2026-04-21 03:10 37.73473 -122.21160 9671 ft 297 kts 17°
2026-04-21 03:10 37.75531 -122.20687 10490 ft 305 kts
2026-04-21 03:10 37.77664 -122.20346 11284 ft 312 kts
2026-04-21 03:11 37.79836 -122.20026 12131 ft 316 kts
2026-04-21 03:11 37.82039 -122.19704 12992 ft 321 kts
2026-04-21 03:11 37.84282 -122.19366 13806 ft 326 kts
2026-04-21 03:11 37.86561 -122.19012 14550 ft 335 kts
2026-04-21 03:12 37.88889 -122.18644 15388 ft 339 kts
2026-04-21 03:12 37.91253 -122.18265 16170 ft 345 kts
2026-04-21 03:12 37.93655 -122.17877 16937 ft 351 kts
2026-04-21 03:12 37.96096 -122.17479 17702 ft 357 kts
2026-04-21 03:13 37.98576 -122.17075 18426 ft 363 kts
2026-04-21 03:13 38.01100 -122.16662 19153 ft 368 kts
2026-04-21 03:13 38.03651 -122.16242 19919 ft 371 kts
2026-04-21 03:13 38.06230 -122.15819 20650 ft 376 kts
2026-04-21 03:14 38.08845 -122.15389 21366 ft 381 kts
2026-04-21 03:14 38.11501 -122.14953 21888 ft 390 kts
2026-04-21 03:14 38.14234 -122.14504 21948 ft 412 kts
2026-04-21 03:14 38.17143 -122.14026 21972 ft 432 kts
2026-04-21 03:15 38.20195 -122.13523 21964 ft 451 kts
2026-04-21 03:15 38.23364 -122.12999 21966 ft 468 kts
2026-04-21 03:15 38.26659 -122.12452 21958 ft 484 kts
2026-04-21 03:15 38.30013 -122.11896 21945 ft 487 kts
2026-04-21 03:16 38.33388 -122.11348 21941 ft 490 kts
2026-04-21 03:16 38.36787 -122.11208 21949 ft 488 kts 356°
2026-04-21 03:16 38.40183 -122.11399 21950 ft 489 kts 354°
2026-04-21 03:16 38.43573 -122.11706 21937 ft 489 kts 353°
2026-04-21 03:17 38.46966 -122.12040 21951 ft 489 kts 353°
2026-04-21 03:17 38.50353 -122.12358 21944 ft 489 kts 353°
2026-04-21 03:17 38.53745 -122.12646 21952 ft 488 kts 354°
2026-04-21 03:17 38.57134 -122.12909 21958 ft 488 kts 354°
2026-04-21 03:18 38.60531 -122.13154 21939 ft 488 kts 355°
2026-04-21 03:18 38.63913 -122.13387 21964 ft 487 kts 354°
2026-04-21 03:18 38.67296 -122.13615 21957 ft 487 kts 355°
2026-04-21 03:18 38.70679 -122.13843 21957 ft 486 kts 355°
2026-04-21 03:19 38.74059 -122.14070 21967 ft 486 kts 355°
2026-04-21 03:19 38.77434 -122.14300 21964 ft 486 kts 355°
2026-04-21 03:19 38.80819 -122.14533 21968 ft 487 kts 355°
2026-04-21 03:19 38.84208 -122.14767 21967 ft 488 kts 354°
2026-04-21 03:20 38.87595 -122.15003 21958 ft 488 kts 354°
2026-04-21 03:20 38.90944 -122.15236 21960 ft 488 kts 355°
2026-04-21 03:20 38.94330 -122.15470 21955 ft 488 kts 355°
2026-04-21 03:20 38.97729 -122.15704 21962 ft 488 kts 355°
2026-04-21 03:21 39.01123 -122.15938 21962 ft 488 kts 355°
2026-04-21 03:21 39.04520 -122.16173 21964 ft 488 kts 355°
2026-04-21 03:21 39.07917 -122.16408 21957 ft 489 kts 355°
2026-04-21 03:21 39.11312 -122.16645 21960 ft 489 kts 355°
2026-04-21 03:22 39.14703 -122.16881 21957 ft 484 kts 355°
2026-04-21 03:22 39.18039 -122.17112 21959 ft 476 kts 355°
2026-04-21 03:22 39.21338 -122.17341 21962 ft 474 kts 355°
2026-04-21 03:22 39.24647 -122.17573 21984 ft 476 kts 355°
2026-04-21 03:23 39.27954 -122.17805 21850 ft 477 kts 355°
2026-04-21 03:23 39.31281 -122.18039 21245 ft 478 kts 355°
2026-04-21 03:23 39.34587 -122.18270 20606 ft 473 kts 355°
2026-04-21 03:23 39.37800 -122.18493 19944 ft 467 kts 355°
2026-04-21 03:24 39.41025 -122.18718 19279 ft 461 kts 355°
2026-04-21 03:24 39.44206 -122.18940 18615 ft 455 kts 355°
2026-04-21 03:24 39.47351 -122.19161 17958 ft 450 kts 355°
2026-04-21 03:24 39.50457 -122.19380 17307 ft 444 kts 355°
2026-04-21 03:25 39.53526 -122.19596 16653 ft 439 kts 355°
2026-04-21 03:25 39.56565 -122.19811 16005 ft 434 kts 355°
2026-04-21 03:25 39.59567 -122.20023 15359 ft 430 kts 355°
2026-04-21 03:25 39.62538 -122.20233 14712 ft 426 kts 356°
2026-04-21 03:26 39.65487 -122.20442 14070 ft 422 kts 356°
2026-04-21 03:26 39.68409 -122.20649 13423 ft 419 kts 356°
2026-04-21 03:26 39.71302 -122.20854 12778 ft 415 kts 356°
2026-04-21 03:26 39.74181 -122.21060 12098 ft 413 kts 357°
2026-04-21 03:27 39.77041 -122.21262 11451 ft 410 kts 357°
2026-04-21 03:27 39.79876 -122.21465 10789 ft 407 kts 357°
2026-04-21 03:27 39.82657 -122.21663 10527 ft 391 kts 357°
2026-04-21 03:27 39.85317 -122.21851 10347 ft 375 kts 357°
2026-04-21 03:28 39.87871 -122.22033 10178 ft 360 kts 357°
2026-04-21 03:28 39.90320 -122.22208 10031 ft 345 kts 357°
2026-04-21 03:28 39.92659 -122.22371 9988 ft 327 kts 358°
2026-04-21 03:28 39.94881 -122.22528 9795 ft 316 kts 358°
2026-04-21 03:29 39.97103 -122.22685 9093 ft 327 kts 358°
2026-04-21 03:29 39.99379 -122.22849 8626 ft 318 kts 358°
2026-04-21 03:29 40.01520 -122.23000 8244 ft 307 kts 358°
2026-04-21 03:29 40.03619 -122.23149 7874 ft 296 kts 357°
2026-04-21 03:30 40.05624 -122.23294 7556 ft 280 kts 357°
2026-04-21 03:30 40.07527 -122.23430 7207 ft 269 kts 357°
2026-04-21 03:30 40.09374 -122.23573 6873 ft 262 kts 354°
2026-04-21 03:30 40.11098 -122.24197 6585 ft 253 kts 339°
2026-04-21 03:31 40.12745 -122.24992 6273 ft 252 kts 339°
2026-04-21 03:31 40.14395 -122.25772 5970 ft 251 kts 339°
2026-04-21 03:31 40.16029 -122.26542 5667 ft 249 kts 340°
2026-04-21 03:31 40.16579 -122.26800 5565 ft 249 kts 340°
2026-04-21 03:32 40.18169 -122.27541 5270 ft 248 kts 340°
2026-04-21 03:32 40.19735 -122.28273 5089 ft 242 kts 340°
2026-04-21 03:32 40.21292 -122.29001 4985 ft 234 kts 340°
2026-04-21 03:32 40.22821 -122.29577 4895 ft 231 kts 353°
2026-04-21 03:33 40.24424 -122.29662 4824 ft 232 kts
2026-04-21 03:33 40.26043 -122.29606 4705 ft 233 kts
2026-04-21 03:33 40.27675 -122.29543 4525 ft 237 kts
2026-04-21 03:33 40.29330 -122.29522 4259 ft 236 kts
2026-04-21 03:34 40.30933 -122.29517 3978 ft 225 kts 360°
2026-04-21 03:34 40.32443 -122.29517 3891 ft 212 kts
2026-04-21 03:34 40.33923 -122.29515 3640 ft 214 kts
2026-04-21 03:34 40.35422 -122.29512 3364 ft 216 kts
2026-04-21 03:35 40.36911 -122.29510 3069 ft 211 kts 360°
2026-04-21 03:35 40.38358 -122.29507 2786 ft 203 kts
2026-04-21 03:35 40.39725 -122.29506 2518 ft 190 kts
2026-04-21 03:35 40.40987 -122.29504 2315 ft 172 kts
2026-04-21 03:36 40.42109 -122.29501 2068 ft 153 kts
2026-04-21 03:36 40.43123 -122.29499 1868 ft 141 kts
2026-04-21 03:36 40.44105 -122.29498 1699 ft 142 kts 360°
2026-04-21 03:36 40.44754 -122.29497 1572 ft 140 kts
2026-04-21 03:37 40.45716 -122.29496 1385 ft 137 kts
2026-04-21 03:37 40.46983 -122.29501 1149 ft 138 kts 359°
2026-04-21 03:37 40.47626 -122.29491 1033 ft 137 kts
2026-04-21 03:37 40.48899 -122.29490 801 ft 138 kts
2026-04-21 03:38 40.49861 -122.29490 635 ft 138 kts 360°
2026-04-21 03:38 40.50809 -122.29486 512 ft 130 kts 360°
2026-04-21 03:38 40.51360 -122.29489 503 ft 103 kts 360°
2026-04-21 03:38 40.51848 -122.29485 503 ft 26 kts 360°
2026-04-21 03:39 40.51966 -122.29485 503 ft 9 kts
2026-04-21 03:39 40.51977 -122.29485 503 ft 0 kts
2026-04-21 03:39 40.51982 -122.29485 503 ft 4 kts 360°
2026-04-21 03:39 40.52021 -122.29519 503 ft 10 kts 298°
2026-04-21 03:40 40.51999 -122.29623 503 ft 13 kts 202°
2026-04-21 03:40 40.51911 -122.29627 503 ft 13 kts 179°
2026-04-21 03:40 40.51824 -122.29625 503 ft 12 kts 179°
2026-04-21 03:40 40.51739 -122.29625 503 ft 12 kts 181°
2026-04-21 03:41 40.51656 -122.29628 503 ft 12 kts 181°
2026-04-21 03:41 40.51573 -122.29631 502 ft 13 kts 181°
2026-04-21 03:41 40.51472 -122.29630 502 ft 18 kts 180°
2026-04-21 03:41 40.51326 -122.29630 503 ft 24 kts 181°
2026-04-21 03:42 40.51153 -122.29632 502 ft 24 kts 179°
2026-04-21 03:42 40.50991 -122.29630 503 ft 23 kts 181°
2026-04-21 03:42 40.50861 -122.29689 503 ft 19 kts 225°
2026-04-21 03:42 40.50770 -122.29811 503 ft 18 kts 224°
2026-04-21 03:43 40.50678 -122.29857 503 ft 11 kts 175°
2026-04-21 03:43 40.50600 -122.29847 503 ft 11 kts 172°
2026-04-21 03:43 40.50547 -122.29854 503 ft 4 kts 242°
2026-04-21 03:43 40.50561 -122.29888 503 ft 4 kts 316°
2026-04-21 03:44 40.50570 -122.29899 503 ft 0 kts 316°
2026-04-21 03:45 40.50526 -122.29903 503 ft 0 kts 323°